Time,TemperatureF,DewpointF,PressureIn,WindDirection,WindDirectionDegrees,WindSpeedMPH,WindSpeedGustMPH,Humidity,HourlyPrecipIn,Conditions,Clouds,dailyrainin,SoftwareType,DateUTC
2013-02-05 00:00:00,11.0,-99.9,-100.00,SSW,206,1.0,3.0,-999,0.00,,,0.00,,2013-02-05 06:00:00,
2013-02-05 00:02:00,11.0,-99.9,-100.00,SSE,150,1.0,2.0,-999,0.00,,,0.00,,2013-02-05 06:02:00,
2013-02-05 00:11:00,11.0,-99.9,-100.00,SSE,150,1.0,2.0,-999,0.00,,,0.00,,2013-02-05 06:11:00,
2013-02-05 00:22:00,11.0,-99.9,-100.00,SSE,150,1.0,2.0,-999,0.00,,,0.00,,2013-02-05 06:22:00,
2013-02-05 00:32:00,11.0,-99.9,-100.00,SSW,206,1.0,3.0,-999,0.00,,,0.00,,2013-02-05 06:32:00,
2013-02-05 00:42:00,11.0,-99.9,-100.00,SSW,206,1.0,3.0,-999,0.00,,,0.00,,2013-02-05 06:42:00,
2013-02-05 00:52:00,11.0,-99.9,-100.00,SSW,206,1.0,3.0,-999,0.00,,,0.00,,2013-02-05 06:52:00,
2013-02-05 01:32:00,9.0,-99.9,-100.00,SW,226,3.0,4.0,-999,0.00,,,0.00,,2013-02-05 07:32:00,
2013-02-05 01:42:00,9.0,-99.9,-100.00,SW,226,3.0,4.0,-999,0.00,,,0.00,,2013-02-05 07:42:00,
2013-02-05 01:52:00,9.0,-99.9,-100.00,SW,226,3.0,4.0,-999,0.00,,,0.00,,2013-02-05 07:52:00,
2013-02-05 02:01:00,10.0,-99.9,-100.00,SW,220,2.0,2.0,-999,0.00,,,0.00,,2013-02-05 08:01:00,
2013-02-05 02:11:00,10.0,-99.9,-100.00,SW,220,2.0,2.0,-999,0.00,,,0.00,,2013-02-05 08:11:00,
2013-02-05 02:22:00,10.0,-99.9,-100.00,SW,220,2.0,2.0,-999,0.00,,,0.00,,2013-02-05 08:22:00,
2013-02-05 02:32:00,10.0,-99.9,-100.00,SSW,212,1.0,2.0,-999,0.00,,,0.00,,2013-02-05 08:32:00,
2013-02-05 02:42:00,10.0,-99.9,-100.00,SSW,212,1.0,2.0,-999,0.00,,,0.00,,2013-02-05 08:42:00,
2013-02-05 02:52:00,10.0,-99.9,-100.00,SSW,212,1.0,2.0,-999,0.00,,,0.00,,2013-02-05 08:52:00,
2013-02-05 03:02:00,9.0,-99.9,-100.00,SSW,198,1.0,2.0,-999,0.00,,,0.00,,2013-02-05 09:02:00,
2013-02-05 03:12:00,9.0,-99.9,-100.00,SSW,198,1.0,2.0,-999,0.00,,,0.00,,2013-02-05 09:12:00,
2013-02-05 03:22:00,9.0,-99.9,-100.00,SSW,198,1.0,2.0,-999,0.00,,,0.00,,2013-02-05 09:22:00,
2013-02-05 03:32:00,12.0,-99.9,-100.00,South,182,0.0,0.0,-999,0.00,,,0.00,,2013-02-05 09:32:00,
2013-02-05 03:42:00,12.0,-99.9,-100.00,South,182,0.0,0.0,-999,0.00,,,0.00,,2013-02-05 09:42:00,
2013-02-05 03:52:00,12.0,-99.9,-100.00,South,182,0.0,0.0,-999,0.00,,,0.00,,2013-02-05 09:52:00,
2013-02-05 04:02:00,13.0,-99.9,-100.00,North,5,0.0,2.0,-999,0.00,,,0.00,,2013-02-05 10:02:00,
2013-02-05 04:11:00,13.0,-99.9,-100.00,North,5,0.0,2.0,-999,0.00,,,0.00,,2013-02-05 10:11:00,
2013-02-05 04:22:00,13.0,-99.9,-100.00,North,5,0.0,2.0,-999,0.00,,,0.00,,2013-02-05 10:22:00,
2013-02-05 04:32:00,14.0,-99.9,-100.00,ENE,74,1.0,3.0,-999,0.00,,,0.00,,2013-02-05 10:32:00,
2013-02-05 04:43:00,14.0,-99.9,-100.00,ENE,74,1.0,3.0,-999,0.00,,,0.00,,2013-02-05 10:43:00,
2013-02-05 04:52:00,14.0,-99.9,-100.00,ENE,74,1.0,3.0,-999,0.00,,,0.00,,2013-02-05 10:52:00,
2013-02-05 05:02:00,15.0,-99.9,-100.00,SSE,156,5.0,6.0,-999,0.00,,,0.00,,2013-02-05 11:02:00,
2013-02-05 05:11:00,15.0,-99.9,-100.00,SSE,156,5.0,6.0,-999,0.00,,,0.00,,2013-02-05 11:11:00,
2013-02-05 05:22:00,15.0,-99.9,-100.00,SSE,156,5.0,6.0,-999,0.00,,,0.00,,2013-02-05 11:22:00,
2013-02-05 05:32:00,16.0,-99.9,-100.00,SSE,168,3.0,6.0,-999,0.00,,,0.00,,2013-02-05 11:32:00,
2013-02-05 05:42:00,16.0,-99.9,-100.00,SSE,168,3.0,6.0,-999,0.00,,,0.00,,2013-02-05 11:42:00,
2013-02-05 05:53:00,16.0,-99.9,-100.00,SSE,168,3.0,6.0,-999,0.00,,,0.00,,2013-02-05 11:53:00,
2013-02-05 06:02:00,17.0,-99.9,-100.00,South,173,3.0,5.0,-999,0.00,,,-99.99,,2013-02-05 12:02:00,
2013-02-05 06:12:00,17.0,-99.9,-100.00,South,173,3.0,5.0,-999,0.00,,,-99.99,,2013-02-05 12:12:00,
2013-02-05 06:22:00,17.0,-99.9,-100.00,South,173,3.0,5.0,-999,0.00,,,-99.99,,2013-02-05 12:22:00,
2013-02-05 06:32:00,18.0,-99.9,-100.00,SSE,167,7.0,9.0,-999,0.00,,,0.00,,2013-02-05 12:32:00,
2013-02-05 06:42:00,18.0,-99.9,-100.00,SSE,167,7.0,9.0,-999,0.00,,,0.00,,2013-02-05 12:42:00,
2013-02-05 06:52:00,18.0,-99.9,-100.00,SSE,167,7.0,9.0,-999,0.00,,,0.00,,2013-02-05 12:52:00,
2013-02-05 07:02:00,18.0,-99.9,-100.00,South,169,6.0,8.0,-999,0.00,,,0.00,,2013-02-05 13:02:00,
2013-02-05 07:12:00,18.0,-99.9,-100.00,South,169,6.0,8.0,-999,0.00,,,0.00,,2013-02-05 13:12:00,
2013-02-05 07:22:00,18.0,-99.9,-100.00,South,169,6.0,8.0,-999,0.00,,,0.00,,2013-02-05 13:22:00,
2013-02-05 07:32:00,18.0,-99.9,-100.00,South,170,5.0,8.0,-999,0.00,,,0.00,,2013-02-05 13:32:00,
2013-02-05 07:42:00,18.0,-99.9,-100.00,South,170,5.0,8.0,-999,0.00,,,0.00,,2013-02-05 13:42:00,
2013-02-05 07:52:00,18.0,-99.9,-100.00,South,170,5.0,8.0,-999,0.00,,,0.00,,2013-02-05 13:52:00,
2013-02-05 08:02:00,19.0,-99.9,-100.00,SSE,164,3.0,6.0,-999,0.00,,,0.00,,2013-02-05 14:02:00,
2013-02-05 08:12:00,19.0,-99.9,-100.00,SSE,164,3.0,6.0,-999,0.00,,,0.00,,2013-02-05 14:12:00,
2013-02-05 08:22:00,19.0,-99.9,-100.00,SSE,164,3.0,6.0,-999,0.00,,,0.00,,2013-02-05 14:22:00,
2013-02-05 08:32:00,20.0,-99.9,-100.00,South,172,3.0,6.0,-999,0.00,,,0.00,,2013-02-05 14:32:00,
2013-02-05 08:42:00,20.0,-99.9,-100.00,South,172,3.0,6.0,-999,0.00,,,0.00,,2013-02-05 14:42:00,
2013-02-05 08:52:00,20.0,-99.9,-100.00,South,172,3.0,6.0,-999,0.00,,,0.00,,2013-02-05 14:52:00,
2013-02-05 09:02:00,21.0,-99.9,-100.00,South,179,3.0,4.0,-999,0.00,,,0.00,,2013-02-05 15:02:00,
2013-02-05 09:11:00,21.0,-99.9,-100.00,South,179,3.0,4.0,-999,0.00,,,0.00,,2013-02-05 15:11:00,
2013-02-05 09:22:00,21.0,-99.9,-100.00,South,179,3.0,4.0,-999,0.00,,,0.00,,2013-02-05 15:22:00,
2013-02-05 09:32:00,23.0,-99.9,-100.00,South,169,3.0,5.0,-999,0.00,,,0.00,,2013-02-05 15:32:00,
2013-02-05 09:42:00,23.0,-99.9,-100.00,South,169,3.0,5.0,-999,0.00,,,0.00,,2013-02-05 15:42:00,
2013-02-05 09:52:00,23.0,-99.9,-100.00,South,169,3.0,5.0,-999,0.00,,,0.00,,2013-02-05 15:52:00,
2013-02-05 10:02:00,25.0,-99.9,-100.00,South,188,4.0,7.0,-999,0.00,,,0.00,,2013-02-05 16:02:00,
2013-02-05 10:12:00,25.0,-99.9,-100.00,South,188,4.0,7.0,-999,0.00,,,0.00,,2013-02-05 16:12:00,
2013-02-05 10:22:00,25.0,-99.9,-100.00,South,188,4.0,7.0,-999,0.00,,,0.00,,2013-02-05 16:22:00,
2013-02-05 10:33:00,25.0,-99.9,-100.00,SSW,213,5.0,10.0,-999,0.00,,,0.00,,2013-02-05 16:33:00,
2013-02-05 10:42:00,25.0,-99.9,-100.00,SSW,213,5.0,10.0,-999,0.00,,,0.00,,2013-02-05 16:42:00,
2013-02-05 10:52:00,25.0,-99.9,-100.00,SSW,213,5.0,10.0,-999,0.00,,,0.00,,2013-02-05 16:52:00,
2013-02-05 11:02:00,27.0,-99.9,-100.00,SW,224,4.0,8.0,-999,0.00,,,0.00,,2013-02-05 17:02:00,
2013-02-05 11:12:00,27.0,-99.9,-100.00,SW,224,4.0,8.0,-999,0.00,,,0.00,,2013-02-05 17:12:00,
2013-02-05 11:22:00,27.0,-99.9,-100.00,SW,224,4.0,8.0,-999,0.00,,,0.00,,2013-02-05 17:22:00,
2013-02-05 11:33:00,29.0,-99.9,-100.00,SSW,212,3.0,7.0,-999,0.00,,,0.00,,2013-02-05 17:33:00,
2013-02-05 11:42:00,29.0,-99.9,-100.00,SSW,212,3.0,7.0,-999,0.00,,,0.00,,2013-02-05 17:42:00,
2013-02-05 11:53:00,29.0,-99.9,-100.00,SSW,212,3.0,7.0,-999,0.00,,,0.00,,2013-02-05 17:53:00,
2013-02-05 12:02:00,28.0,-99.9,-100.00,WSW,244,2.0,6.0,-999,0.00,,,0.00,,2013-02-05 18:02:00,
2013-02-05 12:12:00,28.0,-99.9,-100.00,WSW,244,2.0,6.0,-999,0.00,,,0.00,,2013-02-05 18:12:00,
2013-02-05 12:22:00,28.0,-99.9,-100.00,WSW,244,2.0,6.0,-999,0.00,,,0.00,,2013-02-05 18:22:00,
2013-02-05 12:32:00,28.0,-99.9,-100.00,WSW,248,3.0,4.0,-999,0.00,,,0.00,,2013-02-05 18:32:00,
2013-02-05 12:43:00,28.0,-99.9,-100.00,WSW,248,3.0,4.0,-999,0.00,,,0.00,,2013-02-05 18:43:00,
2013-02-05 12:52:00,28.0,-99.9,-100.00,WSW,248,3.0,4.0,-999,0.00,,,0.00,,2013-02-05 18:52:00,
2013-02-05 13:02:00,29.0,-99.9,-100.00,SW,234,2.0,6.0,-999,0.00,,,0.00,,2013-02-05 19:02:00,
2013-02-05 13:11:00,29.0,-99.9,-100.00,SW,234,2.0,6.0,-999,0.00,,,0.00,,2013-02-05 19:11:00,
2013-02-05 13:22:00,29.0,-99.9,-100.00,SW,234,2.0,6.0,-999,0.00,,,0.00,,2013-02-05 19:22:00,
2013-02-05 13:32:00,30.0,-99.9,-100.00,NW,318,3.0,10.0,-999,0.00,,,0.00,,2013-02-05 19:32:00,
2013-02-05 13:42:00,30.0,-99.9,-100.00,NW,318,3.0,10.0,-999,0.00,,,0.00,,2013-02-05 19:42:00,
2013-02-05 13:52:00,30.0,-99.9,-100.00,NW,318,3.0,10.0,-999,0.00,,,0.00,,2013-02-05 19:52:00,
2013-02-05 14:02:00,31.0,-99.9,-100.00,West,271,1.0,3.0,-999,0.00,,,0.00,,2013-02-05 20:02:00,
2013-02-05 14:11:00,31.0,-99.9,-100.00,West,271,1.0,3.0,-999,0.00,,,0.00,,2013-02-05 20:11:00,
2013-02-05 14:22:00,31.0,-99.9,-100.00,West,271,1.0,3.0,-999,0.00,,,0.00,,2013-02-05 20:22:00,
2013-02-05 14:32:00,31.0,-99.9,-100.00,NW,306,5.0,8.0,-999,0.00,,,0.00,,2013-02-05 20:32:00,
2013-02-05 14:42:00,31.0,-99.9,-100.00,NW,306,5.0,8.0,-999,0.00,,,0.00,,2013-02-05 20:42:00,
2013-02-05 14:52:00,31.0,-99.9,-100.00,NW,306,5.0,8.0,-999,0.00,,,0.00,,2013-02-05 20:52:00,
2013-02-05 15:02:00,31.0,-99.9,-100.00,WNW,297,5.0,9.0,-999,0.00,,,0.00,,2013-02-05 21:02:00,
2013-02-05 15:12:00,31.0,-99.9,-100.00,WNW,297,5.0,9.0,-999,0.00,,,0.00,,2013-02-05 21:12:00,
2013-02-05 15:22:00,31.0,-99.9,-100.00,WNW,297,5.0,9.0,-999,0.00,,,0.00,,2013-02-05 21:22:00,
2013-02-05 15:32:00,32.0,-99.9,-100.00,NW,311,5.0,12.0,-999,0.00,,,0.00,,2013-02-05 21:32:00,
2013-02-05 15:42:00,32.0,-99.9,-100.00,NW,311,5.0,12.0,-999,0.00,,,0.00,,2013-02-05 21:42:00,
2013-02-05 15:52:00,32.0,-99.9,-100.00,NW,311,5.0,12.0,-999,0.00,,,0.00,,2013-02-05 21:52:00,
2013-02-05 16:02:00,32.0,-99.9,-100.00,NW,317,3.0,5.0,-999,0.00,,,0.00,,2013-02-05 22:02:00,
2013-02-05 16:12:00,32.0,-99.9,-100.00,NW,317,3.0,5.0,-999,0.00,,,0.00,,2013-02-05 22:12:00,
2013-02-05 16:22:00,32.0,-99.9,-100.00,NW,317,3.0,5.0,-999,0.00,,,0.00,,2013-02-05 22:22:00,
2013-02-05 16:32:00,33.0,-99.9,-100.00,NW,306,3.0,5.0,-999,0.00,,,0.00,,2013-02-05 22:32:00,
2013-02-05 16:42:00,33.0,-99.9,-100.00,NW,306,3.0,5.0,-999,0.00,,,0.00,,2013-02-05 22:42:00,
2013-02-05 16:52:00,33.0,-99.9,-100.00,NW,306,3.0,5.0,-999,0.00,,,0.00,,2013-02-05 22:52:00,
2013-02-05 17:02:00,34.0,-99.9,-100.00,WNW,295,5.0,7.0,-999,0.00,,,0.00,,2013-02-05 23:02:00,
2013-02-05 17:12:00,34.0,-99.9,-100.00,WNW,295,5.0,7.0,-999,0.00,,,0.00,,2013-02-05 23:12:00,
2013-02-05 17:22:00,34.0,-99.9,-100.00,WNW,295,5.0,7.0,-999,0.00,,,0.00,,2013-02-05 23:22:00,
2013-02-05 17:33:00,34.0,-99.9,-100.00,NW,316,4.0,8.0,-999,0.00,,,0.00,,2013-02-05 23:33:00,
2013-02-05 17:42:00,34.0,-99.9,-100.00,NW,316,4.0,8.0,-999,0.00,,,0.00,,2013-02-05 23:42:00,
2013-02-05 17:53:00,34.0,-99.9,-100.00,NW,316,4.0,8.0,-999,0.00,,,0.00,,2013-02-05 23:53:00,
2013-02-05 18:02:00,33.0,-99.9,-100.00,NW,317,4.0,5.0,-999,0.00,,,0.00,,2013-02-06 00:02:00,
2013-02-05 18:12:00,33.0,-99.9,-100.00,NW,317,4.0,5.0,-999,0.00,,,0.00,,2013-02-06 00:12:00,
2013-02-05 18:22:00,33.0,-99.9,-100.00,NW,317,4.0,5.0,-999,0.00,,,0.00,,2013-02-06 00:22:00,
2013-02-05 18:33:00,33.0,-99.9,-100.00,NW,305,4.0,7.0,-999,0.00,,,0.00,,2013-02-06 00:33:00,
2013-02-05 18:43:00,33.0,-99.9,-100.00,NW,305,4.0,7.0,-999,0.00,,,0.00,,2013-02-06 00:43:00,
2013-02-05 18:52:00,33.0,-99.9,-100.00,NW,305,4.0,7.0,-999,0.00,,,0.00,,2013-02-06 00:52:00,
2013-02-05 19:02:00,33.0,-99.9,-100.00,NW,314,2.0,6.0,-999,0.00,,,0.00,,2013-02-06 01:02:00,
2013-02-05 19:12:00,33.0,-99.9,-100.00,NW,314,2.0,6.0,-999,0.00,,,0.00,,2013-02-06 01:12:00,
2013-02-05 19:22:00,33.0,-99.9,-100.00,NW,314,2.0,6.0,-999,0.00,,,0.00,,2013-02-06 01:22:00,
2013-02-05 19:33:00,33.0,-99.9,-100.00,NW,308,4.0,6.0,-999,0.00,,,0.00,,2013-02-06 01:33:00,
2013-02-05 19:43:00,33.0,-99.9,-100.00,NW,308,4.0,6.0,-999,0.00,,,0.00,,2013-02-06 01:43:00,
2013-02-05 19:53:00,33.0,-99.9,-100.00,NW,308,4.0,6.0,-999,0.00,,,0.00,,2013-02-06 01:53:00,
2013-02-05 20:02:00,32.0,-99.9,-100.00,NW,322,7.0,13.0,-999,0.00,,,0.00,,2013-02-06 02:02:00,
2013-02-05 20:12:00,32.0,-99.9,-100.00,NW,322,7.0,13.0,-999,0.00,,,0.00,,2013-02-06 02:12:00,
2013-02-05 20:22:00,32.0,-99.9,-100.00,NW,322,7.0,13.0,-999,0.00,,,0.00,,2013-02-06 02:22:00,
2013-02-05 20:32:00,32.0,-99.9,-100.00,NNW,338,6.0,10.0,-999,0.00,,,0.00,,2013-02-06 02:32:00,
2013-02-05 20:43:00,32.0,-99.9,-100.00,NNW,338,6.0,10.0,-999,0.00,,,0.00,,2013-02-06 02:43:00,
2013-02-05 20:53:00,32.0,-99.9,-100.00,NNW,338,6.0,10.0,-999,0.00,,,0.00,,2013-02-06 02:53:00,
2013-02-05 21:03:00,30.0,-99.9,-100.00,NNW,348,6.0,7.0,-999,0.00,,,0.00,,2013-02-06 03:03:00,
2013-02-05 21:12:00,30.0,-99.9,-100.00,NNW,348,6.0,7.0,-999,0.00,,,0.00,,2013-02-06 03:12:00,
2013-02-05 21:22:00,30.0,-99.9,-100.00,NNW,348,6.0,7.0,-999,0.00,,,0.00,,2013-02-06 03:22:00,
2013-02-05 21:33:00,29.0,-99.9,-100.00,NNW,340,4.0,5.0,-999,0.00,,,0.00,,2013-02-06 03:33:00,
2013-02-05 21:43:00,29.0,-99.9,-100.00,NNW,340,4.0,5.0,-999,0.00,,,0.00,,2013-02-06 03:43:00,
2013-02-05 21:53:00,29.0,-99.9,-100.00,NNW,340,4.0,5.0,-999,0.00,,,0.00,,2013-02-06 03:53:00,
2013-02-05 22:02:00,29.0,-99.9,-100.00,NNW,344,8.0,10.0,-999,0.00,,,-99.99,,2013-02-06 04:02:00,
2013-02-05 22:12:00,29.0,-99.9,-100.00,NNW,344,8.0,10.0,-999,0.00,,,-99.99,,2013-02-06 04:12:00,
2013-02-05 22:22:00,29.0,-99.9,-100.00,NNW,344,8.0,10.0,-999,0.00,,,-99.99,,2013-02-06 04:22:00,
2013-02-05 22:32:00,28.0,-99.9,-100.00,NW,324,3.0,4.0,-999,0.00,,,0.00,,2013-02-06 04:32:00,
2013-02-05 22:42:00,28.0,-99.9,-100.00,NW,324,3.0,4.0,-999,0.00,,,0.00,,2013-02-06 04:42:00,
2013-02-05 22:52:00,28.0,-99.9,-100.00,NW,324,3.0,4.0,-999,0.00,,,0.00,,2013-02-06 04:52:00,
2013-02-05 23:02:00,28.0,-99.9,-100.00,NW,311,3.0,4.0,-999,0.00,,,0.00,,2013-02-06 05:02:00,
2013-02-05 23:12:00,28.0,-99.9,-100.00,NW,311,3.0,4.0,-999,0.00,,,0.00,,2013-02-06 05:12:00,
2013-02-05 23:22:00,28.0,-99.9,-100.00,NW,311,3.0,4.0,-999,0.00,,,0.00,,2013-02-06 05:22:00,
2013-02-05 23:32:00,26.0,-99.9,-100.00,NW,325,3.0,4.0,-999,0.00,,,0.00,,2013-02-06 05:32:00,
2013-02-05 23:42:00,26.0,-99.9,-100.00,NW,325,3.0,4.0,-999,0.00,,,0.00,,2013-02-06 05:42:00,
2013-02-05 23:53:00,26.0,-99.9,-100.00,NW,325,3.0,4.0,-999,0.00,,,0.00,,2013-02-06 05:53:00,